Regional Weather Roundup
Issued by NWS

Home | Current Version | Previous Version | Text Only | Print | Product List | Glossary Off
Versions: 1 2 3 4 5 6 7 8 9 10 11 12 13 14 15 16 17 18 19 20 21 22 23 24 25 26 27 28 29 30 31 32 33 34 35 36 37 38 39 40 41 42 43 44 45 46 47 48 49 50

000
ASUS43 KMKX 020611
RWRWI

WISCONSIN REGIONAL WEATHER ROUNDUP
NATIONAL WEATHER SERVICE MILWAUKEE/SULLIVAN WI
100 AM CDT THU OCT 02 2014

NOTE: "FAIR" INDICATES FEW OR NO CLOUDS BELOW 12,000 FEET WITH NO
SIGNIFICANT WEATHER AND/OR OBSTRUCTIONS TO VISIBILITY.

WIZ001-002-006>008-014>016-023>028-020700-
NORTHWEST WISCONSIN

CITY           SKY/WX    TMP DP  RH WIND       PRES   REMARKS
SUPERIOR ARPT  CLOUDY    52  52 100 CALM      29.83F FOG
6HR MIN TEMP:  52; 6HR MAX TEMP:  52;

ASHLAND        CLOUDY    55  54  96 SW6       29.85S
6HR MIN TEMP:  51; 6HR MAX TEMP:  55;

HAYWARD        CLOUDY    55  54  96 CALM      29.85F FOG
6HR MIN TEMP:  53; 6HR MAX TEMP:  55;

SIREN          CLOUDY    54  54  98 CALM      29.84S FOG
6HR MIN TEMP:  53; 6HR MAX TEMP:  54;

CUMBERLAND     CLOUDY    54  52  94 CALM      29.84F FOG
RICE LAKE      CLOUDY    55  54  95 CALM      29.86S FOG
6HR MIN TEMP:  54; 6HR MAX TEMP:  55; 6HR PCP:  0.07;

CHETEK         CLOUDY    55  55  99 CALM      29.85S FOG
6HR MIN TEMP:  54; 6HR MAX TEMP:  55;

LADYSMITH      CLOUDY    53  53  97 CALM      29.87S FOG
6HR MIN TEMP:  53; 6HR MAX TEMP:  55;

EAU CLAIRE     CLOUDY    54  53  97 NE3       29.84S FOG
6HR MIN TEMP:  53; 6HR MAX TEMP:  57;

MENOMONIE      CLOUDY    55  55  98 CALM      29.84S FOG
6HR MIN TEMP:  55; 6HR MAX TEMP:  56;

NEW RICHMOND   CLOUDY    56  56 100 CALM      29.83S FOG
6HR MIN TEMP:  55; 6HR MAX TEMP:  56;

OSCEOLA        CLOUDY    56  56 100 E3        29.85S FOG
6HR MIN TEMP:  55; 6HR MAX TEMP:  56;

$$

WIZ003>005-009-010-017-018-020700-
NORTH CENTRAL WISCONSIN

CITY           SKY/WX    TMP DP  RH WIND       PRES   REMARKS
MANITOWISH WTR CLOUDY    54  54 100 S6        29.87S
6HR MIN TEMP:  53; 6HR MAX TEMP:  54;

ARBOR VITAE    CLOUDY    57  55  93 S5        29.88S FOG
6HR MIN TEMP:  57; 6HR MAX TEMP:  57;

WOODRUFF       CLOUDY    57  55  93 S5        29.88S FOG
6HR MIN TEMP:  57; 6HR MAX TEMP:  57;

RHINELANDER    CLOUDY    53  51  93 SE6       29.89S
6HR MIN TEMP:  53; 6HR MAX TEMP:  55; 6HR PCP:  0.01;

EAGLE RIVER    CLOUDY    53  53  97 S5        29.88S FOG
6HR MIN TEMP:  53; 6HR MAX TEMP:  54; 6HR PCP:  0.02;

LAND O LAKES   CLOUDY    54  52  94 S3        29.89S FOG
6HR MIN TEMP:  54; 6HR MAX TEMP:  55;

PHILLIPS       CLOUDY    54  53  97 CALM      29.86S
6HR MIN TEMP:  52; 6HR MAX TEMP:  55; 6HR PCP:  0.01;

TOMAHAWK       CLOUDY    54  51  92 CALM      29.88S
6HR MIN TEMP:  54; 6HR MAX TEMP:  55; 6HR PCP:  0.01;

MEDFORD        CLOUDY    54  52  94 CALM      29.86S
6HR MIN TEMP:  54; 6HR MAX TEMP:  56;

MERRILL        CLOUDY    55  53  95 SE3       29.88S
6HR MIN TEMP:  55; 6HR MAX TEMP:  59;

$$

WIZ029-030-035-036-043>047-020700-
CENTRAL WISCONSIN

CITY           SKY/WX    TMP DP  RH WIND       PRES   REMARKS
WAUSAU         CLOUDY    56  52  86 SE6       29.87S
6HR MIN TEMP:  55; 6HR MAX TEMP:  59; 6HR PCP: TRACE;

MOSINEE        CLOUDY    54  54 100 SE7       29.88S
MARSHFIELD     CLOUDY    58  54  86 SE6       29.86S
6HR MIN TEMP:  58; 6HR MAX TEMP:  59; 6HR PCP: TRACE;

STEVENS POINT  CLOUDY    54  52  94 E3        29.87F FOG
6HR MIN TEMP:  53; 6HR MAX TEMP:  58; 6HR PCP:  0.06;

WAUPACA        CLOUDY    58  56  93 E3        29.88F FOG
6HR MIN TEMP:  58; 6HR MAX TEMP:  61;

WAUTOMA        NOT AVBL
WISC RAPIDS    CLOUDY    57  55  93 SE6       29.87F
6HR MIN TEMP:  57; 6HR MAX TEMP:  60; 6HR PCP:  0.08;

CAMP DOUGLAS   MOCLDY    60  60 100 SE3       29.85S
6HR MIN TEMP:  60; 6HR MAX TEMP:  62;

$$

WIZ011>013-019>022-031-037>040-048>050-020700-
NORTHEAST WISCONSIN

CITY           SKY/WX    TMP DP  RH WIND       PRES   REMARKS
ANTIGO         LGT RAIN  52  51  97 SE6       29.89F
6HR MIN TEMP:  52; 6HR MAX TEMP:  55;

SHAWANO        CLOUDY    56  54  91 E5        29.90S FOG
6HR MIN TEMP:  56; 6HR MAX TEMP:  58; 6HR PCP:  0.01;

OCONTO         CLOUDY    55  55 100 SE3       29.90S
6HR MIN TEMP:  54; 6HR MAX TEMP:  55; 6HR PCP:  0.06;

STURGEON BAY   NOT AVBL
GREEN BAY      CLOUDY    58  55  90 SE6       29.89F
6HR MIN TEMP:  56; 6HR MAX TEMP:  58; 6HR PCP:  0.25;

MANITOWOC      NOT AVBL
APPLETON       CLOUDY    55  54  94 SE3       29.89S
CLINTONVILLE   CLOUDY    54  52  94 CALM      29.89S FOG
OSHKOSH        CLOUDY    58  55  90 SE3       29.87F
6HR MIN TEMP:  57; 6HR MAX TEMP:  58; 6HR PCP:  0.05;

$$

WIZ032>034-041-042-053>061-020700-
SOUTHWEST WISCONSIN

CITY           SKY/WX    TMP DP  RH WIND       PRES   REMARKS
LA CROSSE      CLOUDY    61  57  87 CALM      29.84R
6HR MIN TEMP:  60; 6HR MAX TEMP:  64;

SPARTA         CLOUDY    60  57  90 CALM      29.85R
6HR MIN TEMP:  59; 6HR MAX TEMP:  62;

VIROQUA        CLOUDY    62  57  84 SE8       29.85S
6HR MIN TEMP:  62; 6HR MAX TEMP:  64;

BOSCOBEL       CLOUDY    65  59  81 CALM      29.84S
6HR MIN TEMP:  65; 6HR MAX TEMP:  67;

PRAIRIE DU CHI CLOUDY    64  58  80 CALM      29.83S
6HR MIN TEMP:  64; 6HR MAX TEMP:  67;

PLATTEVILLE    CLOUDY    64  61  90 E7        29.85F
6HR MIN TEMP:  64; 6HR MAX TEMP:  68;

$$

WIZ056-057-062-063-064-067-068-020700-
SOUTH CENTRAL WISCONSIN

CITY           SKY/WX    TMP DP  RH WIND       PRES   REMARKS
REEDSBURG      CLOUDY    62  56  80 CALM      29.85S
6HR MIN TEMP:  62; 6HR MAX TEMP:  65;

BARABOO/DELLS  MOCLDY    60  54  78 S3        29.86S
6HR MIN TEMP:  60; 6HR MAX TEMP:  65;

LONE ROCK      MOCLDY    66  57  72 E6        29.85S
6HR MIN TEMP:  66; 6HR MAX TEMP:  71; 6HR PCP: TRACE;

MINERAL POINT  CLOUDY    63  59  88 SE7       29.86F
MADISON        CLOUDY    63  54  72 MISG      29.87S
6HR MIN TEMP:  60; 6HR MAX TEMP:  66;

MIDDLETON      MOCLDY    64  55  72 S5        29.87S
6HR MIN TEMP:  62; 6HR MAX TEMP:  68;

WATERTOWN      CLOUDY    62  55  80 CALM      29.87S
6HR MIN TEMP:  59; 6HR MAX TEMP:  62;

MONROE         CLOUDY    63  55  77 S7        29.86F
JANESVILLE     CLOUDY    64  54  68 SE7       29.87S
$$

WIZ051-052-058>065-066-070>072-020700-
SOUTHEAST WISCONSIN

CITY           SKY/WX    TMP DP  RH WIND       PRES   REMARKS
MILWAUKEE      CLOUDY    63  53  70 S9        29.89F
6HR MIN TEMP:  59; 6HR MAX TEMP:  64;

WAUKESHA       CLOUDY    61  52  72 S8        29.90S
MILWAUKEE/TIMM CLOUDY    63  50  63 SE8       29.89F
RACINE         CLOUDY    63  55  75 S13       29.91S
6HR MIN TEMP:  60; 6HR MAX TEMP:  64;

BURLINGTON     CLOUDY    60  53  77 SE6       29.88F
6HR MIN TEMP:  58; 6HR MAX TEMP:  61;

KENOSHA        NOT AVBL
FOND DU LAC    CLOUDY    60  54  80 S6        29.88S
6HR MIN TEMP:  57; 6HR MAX TEMP:  60; 6HR PCP: TRACE;

SHEBOYGAN      CLOUDY    61  55  81 S8        29.89F
6HR MIN TEMP:  56; 6HR MAX TEMP:  61; 6HR PCP: TRACE;

WEST BEND      CLOUDY    61  52  72 CALM      29.89S
JUNEAU         CLOUDY    60  54  79 SE5       29.88S
6HR MIN TEMP:  58; 6HR MAX TEMP:  61;

$$

LSZ147-162-020700-
LAKE SUPERIOR

STATION/POSITION TIME  TEMP    WIND        PRES    WAVE
                       AIR SEA DIR/SP/G            HT/PER
                 (UTC) (F)     (DEG/KT/KT) (MB)    (FT/S)
W MID LAKE BUOY  0550   51 49  170/  4/  6 1010.7R   0
DEVILS ISLAND    0600   54     250/  6/  6 1010.7S
SAXON HARBOR     0500   53        CALM     1010.5
$$

LMZ867-665-643>646-020700-
LAKE MICHIGAN

STATION/POSITION TIME  TEMP    WIND        PRES    WAVE
                       AIR SEA DIR/SP/G            HT/PER
                 (UTC) (F)     (DEG/KT/KT) (MB)    (FT/S)
CHAMBERS ISLAND  0500   56     160/  2/  6 1013.5F
S GREEN BAY BUOY 0600   58                 1013.5R
N MID LAKE BUOY  0550   58 58  160/ 12/ 14 1013.3F   2/ 5


USA.gov is the U.S. government's official web portal to all federal, state and local government web resources and services.